Time,TemperatureF,DewpointF,PressureIn,WindDirection,WindDirectionDegrees,WindSpeedMPH,WindSpeedGustMPH,Humidity,HourlyPrecipIn,Conditions,Clouds,dailyrainin,SolarRadiationWatts/m^2,SoftwareType,DateUTC
2013-11-24 00:01:00,29.0,24.0,-100.00,NE,45,2.0,8.0,81,0.00,,,0.00,0.000000,,2013-11-24 08:01:00,
2013-11-24 00:42:00,29.0,24.0,-100.00,ENE,71,2.0,8.0,81,0.00,,,0.00,0.000000,,2013-11-24 08:42:00,
2013-11-24 00:53:00,29.0,24.0,-100.00,ENE,71,2.0,8.0,81,0.00,,,0.00,0.000000,,2013-11-24 08:53:00,
2013-11-24 01:02:00,29.0,24.0,-100.00,ENE,71,2.0,8.0,81,0.00,,,0.00,0.000000,,2013-11-24 09:02:00,
2013-11-24 01:43:00,28.0,23.0,-100.00,East,90,2.0,8.0,81,0.00,,,0.00,0.000000,,2013-11-24 09:43:00,
2013-11-24 01:53:00,28.0,23.0,-100.00,East,90,2.0,8.0,81,0.00,,,0.00,0.000000,,2013-11-24 09:53:00,
2013-11-24 02:03:00,28.0,23.0,-100.00,East,90,2.0,8.0,81,0.00,,,0.00,0.000000,,2013-11-24 10:03:00,
2013-11-24 02:43:00,28.0,23.0,-100.00,ESE,102,1.0,9.0,81,0.00,,,0.00,0.000000,,2013-11-24 10:43:00,
2013-11-24 02:53:00,28.0,23.0,-100.00,ESE,102,1.0,9.0,81,0.00,,,0.00,0.000000,,2013-11-24 10:53:00,
2013-11-24 03:02:00,28.0,23.0,-100.00,ESE,102,1.0,9.0,81,0.00,,,0.00,0.000000,,2013-11-24 11:02:00,
2013-11-24 03:43:00,28.0,23.0,-100.00,East,92,2.0,8.0,81,0.00,,,0.00,0.000000,,2013-11-24 11:43:00,
2013-11-24 03:53:00,28.0,23.0,-100.00,East,92,2.0,8.0,81,0.00,,,0.00,0.000000,,2013-11-24 11:53:00,
2013-11-24 04:02:00,28.0,23.0,-100.00,East,92,2.0,8.0,81,0.00,,,0.00,0.000000,,2013-11-24 12:02:00,
2013-11-24 04:42:00,28.0,23.0,-100.00,SW,214,2.0,10.0,82,0.00,,,0.00,0.000000,,2013-11-24 12:42:00,
2013-11-24 04:53:00,28.0,23.0,-100.00,SW,214,2.0,10.0,82,0.00,,,0.00,0.000000,,2013-11-24 12:53:00,
2013-11-24 05:01:00,28.0,23.0,-100.00,SW,214,2.0,10.0,82,0.00,,,0.00,0.000000,,2013-11-24 13:01:00,
2013-11-24 05:42:00,28.0,23.0,-100.00,NW,314,2.0,8.0,80,0.00,,,0.00,0.000000,,2013-11-24 13:42:00,
2013-11-24 05:52:00,28.0,23.0,-100.00,NW,314,2.0,8.0,80,0.00,,,0.00,0.000000,,2013-11-24 13:52:00,
2013-11-24 06:01:00,28.0,23.0,-100.00,NW,314,2.0,8.0,80,0.00,,,0.00,0.000000,,2013-11-24 14:01:00,
2013-11-24 06:42:00,28.0,23.0,-100.00,SSE,167,2.0,8.0,81,0.00,,,0.00,0.000000,,2013-11-24 14:42:00,
2013-11-24 06:52:00,28.0,23.0,-100.00,SSE,167,2.0,8.0,81,0.00,,,0.00,0.000000,,2013-11-24 14:52:00,
2013-11-24 07:02:00,28.0,23.0,-100.00,SSE,167,2.0,8.0,81,0.00,,,0.00,0.000000,,2013-11-24 15:02:00,
2013-11-24 07:44:00,28.0,23.0,-100.00,North,355,1.0,10.0,82,0.00,,,0.00,0.000000,,2013-11-24 15:44:00,
2013-11-24 07:53:00,28.0,23.0,-100.00,North,355,1.0,10.0,82,0.00,,,0.00,0.000000,,2013-11-24 15:53:00,
2013-11-24 08:03:00,28.0,23.0,-100.00,North,355,1.0,10.0,82,0.00,,,0.00,0.000000,,2013-11-24 16:03:00,
2013-11-24 08:43:00,28.0,24.0,-100.00,WNW,285,2.0,9.0,83,0.00,,,0.00,9.000000,,2013-11-24 16:43:00,
2013-11-24 08:53:00,28.0,24.0,-100.00,WNW,285,2.0,9.0,83,0.00,,,0.00,9.000000,,2013-11-24 16:53:00,
2013-11-24 09:02:00,28.0,24.0,-100.00,WNW,285,2.0,9.0,83,0.00,,,0.00,9.000000,,2013-11-24 17:02:00,
2013-11-24 09:43:00,29.0,24.0,-100.00,NNE,31,2.0,10.0,80,0.00,,,0.00,18.000000,,2013-11-24 17:43:00,
2013-11-24 09:52:00,29.0,24.0,-100.00,NNE,31,2.0,10.0,80,0.00,,,0.00,18.000000,,2013-11-24 17:52:00,
2013-11-24 10:02:00,29.0,24.0,-100.00,NNE,31,2.0,10.0,80,0.00,,,0.00,18.000000,,2013-11-24 18:02:00,
2013-11-24 10:42:00,35.0,25.0,-100.00,SSW,211,1.0,9.0,67,-99.99,,,0.00,47.000000,,2013-11-24 18:42:00,
2013-11-24 10:52:00,35.0,25.0,-100.00,SSW,211,1.0,9.0,67,-99.99,,,0.00,47.000000,,2013-11-24 18:52:00,
2013-11-24 11:02:00,35.0,25.0,-100.00,SSW,211,1.0,9.0,67,-99.99,,,0.00,47.000000,,2013-11-24 19:02:00,
2013-11-24 11:42:00,41.0,24.0,-100.00,NW,306,1.0,6.0,51,-99.99,,,0.00,84.000000,,2013-11-24 19:42:00,
2013-11-24 11:52:00,41.0,24.0,-100.00,NW,306,1.0,6.0,51,-99.99,,,0.00,84.000000,,2013-11-24 19:52:00,
2013-11-24 12:02:00,41.0,24.0,-100.00,NW,306,1.0,6.0,51,-99.99,,,0.00,84.000000,,2013-11-24 20:02:00,
2013-11-24 12:42:00,50.0,24.0,-100.00,SSE,148,1.0,6.0,36,0.00,,,0.00,150.000000,,2013-11-24 20:42:00,
2013-11-24 12:52:00,50.0,24.0,-100.00,SSE,148,1.0,6.0,36,0.00,,,0.00,150.000000,,2013-11-24 20:52:00,
2013-11-24 13:01:00,50.0,24.0,-100.00,SSE,148,1.0,6.0,36,0.00,,,0.00,150.000000,,2013-11-24 21:01:00,
2013-11-24 13:54:00,57.0,24.0,-100.00,North,0,1.0,4.0,28,0.00,,,0.00,438.000000,,2013-11-24 21:54:00,
2013-11-24 14:03:00,57.0,24.0,-100.00,North,0,1.0,4.0,28,0.00,,,0.00,438.000000,,2013-11-24 22:03:00,
2013-11-24 14:43:00,51.0,23.0,-100.00,South,177,1.0,3.0,33,-99.99,,,0.00,70.000000,,2013-11-24 22:43:00,
2013-11-24 14:53:00,51.0,23.0,-100.00,South,177,1.0,3.0,33,-99.99,,,0.00,70.000000,,2013-11-24 22:53:00,
2013-11-24 15:02:00,51.0,23.0,-100.00,South,177,1.0,3.0,33,-99.99,,,0.00,70.000000,,2013-11-24 23:02:00,
2013-11-24 15:42:00,49.0,25.0,-100.00,NNW,330,1.0,5.0,38,0.00,,,0.00,56.000000,,2013-11-24 23:42:00,
2013-11-24 15:52:00,49.0,25.0,-100.00,NNW,330,1.0,5.0,38,0.00,,,0.00,56.000000,,2013-11-24 23:52:00,
2013-11-24 16:02:00,49.0,25.0,-100.00,NNW,330,1.0,5.0,38,0.00,,,0.00,56.000000,,2013-11-25 00:02:00,
2013-11-24 16:42:00,42.0,26.0,-100.00,NE,53,0.0,4.0,52,0.00,,,0.00,19.000000,,2013-11-25 00:42:00,
2013-11-24 16:52:00,42.0,26.0,-100.00,NE,53,0.0,4.0,52,0.00,,,0.00,19.000000,,2013-11-25 00:52:00,
2013-11-24 17:01:00,42.0,26.0,-100.00,NE,53,0.0,4.0,52,0.00,,,0.00,19.000000,,2013-11-25 01:01:00,
2013-11-24 17:42:00,34.0,25.0,-100.00,SSW,198,1.0,6.0,69,0.00,,,0.00,2.000000,,2013-11-25 01:42:00,
2013-11-24 17:52:00,34.0,25.0,-100.00,SSW,198,1.0,6.0,69,0.00,,,0.00,2.000000,,2013-11-25 01:52:00,
2013-11-24 18:01:00,34.0,25.0,-100.00,SSW,198,1.0,6.0,69,0.00,,,0.00,2.000000,,2013-11-25 02:01:00,
2013-11-24 18:42:00,33.0,26.0,-100.00,NNE,20,1.0,9.0,76,0.00,,,0.00,0.000000,,2013-11-25 02:42:00,
2013-11-24 18:52:00,33.0,26.0,-100.00,NNE,20,1.0,9.0,76,0.00,,,0.00,0.000000,,2013-11-25 02:52:00,
2013-11-24 19:01:00,33.0,26.0,-100.00,NNE,20,1.0,9.0,76,0.00,,,0.00,0.000000,,2013-11-25 03:01:00,
2013-11-24 19:43:00,32.0,26.0,-100.00,East,100,1.0,8.0,79,0.00,,,0.00,0.000000,,2013-11-25 03:43:00,
2013-11-24 19:53:00,32.0,26.0,-100.00,East,100,1.0,8.0,79,0.00,,,0.00,0.000000,,2013-11-25 03:53:00,
2013-11-24 20:03:00,32.0,26.0,-100.00,East,100,1.0,8.0,79,0.00,,,0.00,0.000000,,2013-11-25 04:03:00,
2013-11-24 20:43:00,32.0,26.0,-100.00,SW,216,1.0,10.0,79,0.00,,,0.00,0.000000,,2013-11-25 04:43:00,
2013-11-24 20:52:00,32.0,26.0,-100.00,SW,216,1.0,10.0,79,0.00,,,0.00,0.000000,,2013-11-25 04:52:00,
2013-11-24 21:02:00,32.0,26.0,-100.00,SW,216,1.0,10.0,79,0.00,,,0.00,0.000000,,2013-11-25 05:02:00,
2013-11-24 21:43:00,32.0,27.0,-100.00,SSW,206,1.0,6.0,80,0.00,,,-99.99,0.000000,,2013-11-25 05:43:00,
2013-11-24 21:53:00,32.0,27.0,-100.00,SSW,206,1.0,6.0,80,0.00,,,-99.99,0.000000,,2013-11-25 05:53:00,
2013-11-24 22:02:00,32.0,27.0,-100.00,SSW,206,1.0,6.0,80,0.00,,,-99.99,0.000000,,2013-11-25 06:02:00,
2013-11-24 22:42:00,30.0,26.0,-100.00,East,91,1.0,6.0,85,0.00,,,0.00,0.000000,,2013-11-25 06:42:00,
2013-11-24 22:52:00,30.0,26.0,-100.00,East,91,1.0,6.0,85,0.00,,,0.00,0.000000,,2013-11-25 06:52:00,
2013-11-24 23:01:00,30.0,26.0,-100.00,East,91,1.0,6.0,85,0.00,,,0.00,0.000000,,2013-11-25 07:01:00,
2013-11-24 23:42:00,30.0,27.0,-100.00,NE,41,2.0,6.0,88,0.00,,,0.00,0.000000,,2013-11-25 07:42:00,
2013-11-24 23:52:00,30.0,27.0,-100.00,NE,41,2.0,6.0,88,0.00,,,0.00,0.000000,,2013-11-25 07:52:00,